Temp
84 83 82 81 81 82 82 82 83 82 81 82 81 82 79 78 73 72 72 74 76 80 85 82 80 81 82 82 84 82 84 82 81 85 84 83 83 77 71 70 71 71 71 70 70 70 71 71 71 72 72 73 73 73 73 73 73 73 73 73 73 73 72 72 72 72 72 72 72 73 73 74 74 74
82 82 82 81 81 82 81 82 83 81 80 81 81 81 81 80 76 75 72 73 78 78 82 85 82 79 81 82 82 83 83 78 79 83 83 83 84 73 69 69 70 70 70 69 69 69 69 70 70 70 71 71 72 72 72 72 72 72 72 72 72 72 72 71 71 71 71 71 71 71 72 73 73 73
81 80 80 80 80 81 81 81 82 81 80 80 81 81 81 79 79 77 75 72 77 80 78 82 85 83 81 84 83 83 84 80 81 83 83 83 76 70 76 70 69 69 69 68 68 68 68 68 68 69 69 70 70 71 71 71 72 72 72 72 72 72 72 71 70 71 71 71 71 71 71 71 71 72
80 80 79 79 79 80 80 81 81 80 80 80 80 80 80 79 79 78 76 73 74 79 81 81 81 83 82 81 81 82 83 79 75 83 82 81 75 80 84 73 70 69 68 68 68 67 67 66 67 68 69 69 69 70 70 71 71 71 71 70 70 70 70 69 70 70 70 70 70 71 71 71 71 71
80 79 79 80 80 80 79 80 81 81 80 79 80 80 79 79 79 78 76 74 75 78 80 80 81 82 82 81 82 81 82 81 81 79 82 81 82 82 83 83 73 69 68 68 67 67 67 66 67 68 68 68 69 70 70 69 69 68 69 69 68 68 68 68 69 69 69 70 70 70 70 71 71 71
79 79 78 79 80 80 79 80 81 82 82 81 81 79 80 79 79 79 77 76 75 74 78 78 80 80 81 79 81 80 81 81 80 81 80 81 82 81 83 83 83 69 69 68 67 67 66 66 66 67 67 68 68 68 69 68 66 67 67 67 66 66 66 66 67 67 68 68 69 69 69 70 70 71
79 79 78 79 80 79 79 79 81 82 81 81 80 80 80 79 80 79 78 77 75 75 76 79 79 79 79 79 79 80 80 80 80 80 80 81 81 81 81 82 84 71 69 68 67 66 66 66 65 66 66 66 66 66 65 65 65 65 64 64 64 65 65 65 65 66 67 66 67 68 68 68 69 69
79 79 78 80 81 80 78 78 79 80 80 79 79 79 79 78 79 79 78 78 76 76 75 77 78 80 79 79 80 80 80 81 79 80 80 80 80 81 81 80 82 76 68 67 66 66 66 65 65 64 64 64 64 63 63 63 63 62 63 63 63 63 63 62 62 63 63 64 64 65 66 67 67 67
80 79 79 80 80 79 78 78 79 79 78 79 79 78 78 78 79 79 78 77 77 76 75 76 78 79 79 79 79 79 79 79 79 79 78 79 79 79 81 82 81 73 67 67 67 67 67 67 66 65 64 64 63 63 63 63 62 62 61 60 60 62 62 61 61 62 62 62 62 63 64 65 66 66
81 80 80 80 80 79 78 78 78 78 77 78 78 78 78 78 78 77 77 77 76 76 76 76 76 78 77 77 77 78 78 77 77 78 78 78 78 77 78 81 81 81 81 81 80 72 70 67 65 66 66 64 63 62 62 63 63 61 60 57 58 61 60 59 59 60 60 60 60 60 62 63 64 65
82 81 81 80 80 79 79 78 77 77 77 77 77 77 77 78 77 76 77 76 76 75 75 76 76 76 78 77 76 77 77 77 77 76 76 77 78 77 76 76 79 81 80 77 71 73 73 69 72 68 63 63 63 63 62 62 62 61 59 58 57 57 57 59 58 58 58 59 60 60 60 59 61 63
83 82 82 83 81 80 79 79 78 78 77 77 77 77 77 77 76 77 77 77 76 76 76 75 76 77 76 76 77 77 76 76 75 76 75 73 75 76 76 76 75 77 77 78 82 73 72 72 69 63 64 64 64 64 65 67 67 64 61 59 61 61 58 58 58 58 58 58 58 58 59 59 60 60
81 81 82 82 83 79 76 75 75 75 75 79 77 76 75 75 75 76 77 77 76 76 76 75 76 75 75 75 75 75 75 74 74 76 75 73 75 75 75 76 77 76 75 77 78 78 79 78 77 78 77 77 73 72 68 70 68 64 61 60 62 61 60 58 58 58 57 57 57 57 58 58 58 59
80 81 82 81 76 74 74 73 72 71 71 72 78 78 76 76 76 76 76 76 76 76 74 75 75 74 74 75 75 75 76 76 76 74 74 73 74 73 73 74 76 77 76 75 73 75 78 78 76 76 76 78 76 77 78 78 74 67 62 62 62 61 61 59 59 58 57 57 57 56 56 56 57 57
79 80 80 80 76 74 73 74 71 71 69 70 70 72 73 74 77 77 76 76 77 75 75 76 75 75 74 75 76 76 77 77 75 75 74 73 72 71 69 68 73 76 74 72 71 72 76 75 73 74 75 77 77 78 78 67 65 63 62 62 62 62 62 62 61 60 58 58 57 57 56 56 57 57
79 79 78 78 78 77 77 77 75 72 69 68 68 69 70 70 71 73 77 77 76 76 75 74 75 75 74 75 76 77 77 75 75 74 74 72 71 70 69 70 69 74 73 71 70 70 75 75 74 72 74 76 77 78 70 65 63 62 62 62 61 61 61 62 62 61 60 60 60 60 60 59 59 58
79 78 77 77 76 77 71 74 77 76 74 68 67 68 69 69 69 67 68 72 78 79 76 75 75 75 76 74 75 77 75 75 73 73 73 73 72 71 70 70 72 73 74 71 69 68 73 74 73 73 74 76 76 77 70 65 64 63 62 62 61 61 62 61 61 61 61 60 59 58 57 59 59 58
79 78 77 76 75 76 75 75 76 76 76 75 73 73 74 75 73 68 66 67 69 74 77 77 75 77 77 75 76 76 75 73 72 72 72 72 71 70 70 71 71 73 75 70 69 67 71 75 73 71 74 76 75 75 70 65 64 63 62 61 61 60 60 60 60 60 59 59 59 58 57 55 55 55
80 79 78 77 75 74 74 74 74 75 76 76 76 75 76 77 78 78 79 78 79 77 79 79 78 78 78 77 76 76 75 75 74 74 73 72 71 71 72 72 72 73 74 72 69 64 70 74 71 72 73 75 74 75 70 67 64 63 62 61 61 60 60 60 60 59 59 59 58 57 56 55 55 55
79 79 78 76 75 74 73 69 66 71 75 74 75 75 76 77 79 80 76 72 75 79 80 80 81 82 79 73 76 76 77 75 74 74 74 72 70 69 69 68 74 73 75 72 69 67 68 72 71 71 74 74 72 73 74 68 65 63 62 62 61 60 58 59 59 59 58 58 58 57 56 54 53 53
79 78 78 77 75 74 73 68 63 65 69 74 74 75 76 77 77 78 74 64 65 66 64 63 62 61 60 60 59 59 62 70 73 73 71 69 73 69 67 69 70 71 75 75 73 69 67 70 70 70 72 71 70 72 73 75 69 65 63 62 61 59 58 57 57 58 58 58 58 57 56 55 54 54
77 77 72 74 76 75 74 64 60 62 69 74 74 75 75 75 74 76 76 75 69 60 60 60 60 60 60 60 59 59 59 59 67 71 69 73 74 69 69 67 69 72 72 72 74 67 68 70 70 68 70 70 72 73 73 73 72 67 66 64 62 60 59 57 57 57 58 57 57 57 55 54 54 65
77 76 73 68 71 73 71 60 60 60 67 75 75 74 74 73 73 75 75 74 72 71 72 70 70 68 66 69 71 70 59 61 65 72 73 74 72 69 70 70 69 67 70 73 72 65 67 68 70 68 66 65 70 73 72 72 72 73 74 74 74 64 61 58 57 55 56 56 56 56 55 54 55 69
76 76 76 70 62 63 61 58 57 57 61 73 75 75 74 73 72 76 75 74 74 72 73 72 72 72 72 72 72 72 70 69 70 73 74 74 73 70 70 70 68 66 67 73 74 67 69 69 68 70 68 63 62 69 72 71 72 73 73 73 73 68 65 63 62 59 55 55 55 55 54 54 54 69
76 75 76 77 62 58 57 56 55 55 56 64 74 74 74 75 74 71 74 71 70 73 72 72 71 72 71 72 73 73 73 74 74 74 74 75 75 72 71 70 70 70 72 74 68 68 65 68 67 68 67 67 68 67 69 69 71 72 73 73 72 73 73 74 71 74 66 58 55 53 53 54 54 61
78 76 75 75 64 56 56 55 53 53 55 59 73 73 64 61 61 72 74 73 73 73 73 73 72 72 72 72 73 74 75 76 75 76 76 76 77 76 75 71 68 67 68 70 63 69 66 65 67 66 67 65 66 68 66 67 70 72 72 73 73 72 73 73 74 73 73 74 74 66 68 57 56 54
77 77 74 73 59 56 54 53 52 52 54 57 69 59 56 57 61 68 74 73 72 73 73 72 70 70 71 71 72 73 73 76 75 76 76 75 75 73 74 73 72 70 71 72 72 69 67 66 68 66 65 66 63 65 66 65 67 71 71 72 72 73 74 74 73 73 73 73 73 62 57 56 55 55
76 73 72 67 55 53 51 51 52 53 54 64 57 53 56 58 62 73 72 71 71 71 71 69 69 69 71 72 72 72 73 75 72 74 74 73 74 72 72 71 71 72 71 72 72 71 68 66 67 68 66 64 63 62 62 68 69 69 68 71 72 73 74 73 72 71 72 72 72 71 71 71 73 71
75 66 61 56 52 52 51 51 52 53 53 56 53 54 56 61 72 72 72 71 71 69 68 69 70 70 71 72 73 73 73 73 72 71 72 73 72 72 71 70 70 70 70 72 72 71 69 68 67 68 66 66 65 65 65 64 66 67 68 67 67 70 71 72 72 71 70 71 70 70 70 71 70 71
64 59 56 54 53 53 55 58 61 62 62 56 55 55 59 70 72 71 71 70 69 69 70 70 70 72 73 73 73 72 71 70 70 70 70 70 70 70 69 68 69 71 73 73 73 72 70 69 67 66 66 66 66 65 65 65 65 67 68 68 69 70 71 72 71 71 70 69 69 69 71 71 70 69
65 61 60 61 57 58 56 58 58 60 59 57 58 62 67 71 71 71 71 70 70 70 71 71 72 73 74 73 70 69 69 68 70 71 69 70 71 70 69 67 67 69 71 73 74 73 72 70 68 67 64 65 67 66 66 67 65 66 68 69 69 64 69 70 71 70 70 70 70 70 70 70 71 70
65 63 57 56 59 59 58 61 63 62 61 61 62 64 67 70 71 70 68 69 72 72 73 73 73 72 70 69 70 71 70 71 71 71 69 69 69 70 69 66 66 69 69 71 72 71 69 70 68 67 66 65 63 65 67 66 66 67 67 69 69 70 71 70 71 70 70 69 68 68 68 69 69 70
62 61 60 59 59 59 60 60 60 60 60 61 63 65 67 68 68 68 69 69 69 70 70 70 69 70 70 70 71 71 71 69 70 70 68 68 68 68 67 66 68 67 67 68 69 69 70 70 68 67 67 67 66 65 64 64 66 68 68 68 68 68 70 71 71 69 69 66 66 67 66 68 69 69
60 60 60 60 60 60 60 60 60 60 60 60 61 62 61 66 68 68 69 70 70 70 69 70 70 70 70 70 70 70 70 70 70 68 65 66 67 65 66 66 67 68 66 66 67 68 69 68 68 68 68 67 69 67 67 66 65 67 68 68 67 67 69 70 70 69 67 67 65 64 64 66 68 70
61 60 60 60 60 60 61 60 60 61 60 60 60 61 61 64 66 67 69 70 70 69 70 70 71 71 70 70 70 70 70 70 70 68 67 68 66 66 67 67 67 66 67 66 67 68 67 66 66 66 66 66 67 69 69 69 68 67 68 68 68 67 67 69 69 68 67 66 67 63 64 65 66 69
62 62 61 61 61 61 60 61 61 61 61 61 61 61 61 64 67 66 68 68 70 70 70 70 70 69 70 71 70 71 70 69 70 69 67 67 67 67 68 67 66 66 67 67 67 68 67 67 66 64 62 63 63 63 67 66 65 69 65 65 67 66 67 67 67 67 67 66 65 64 61 61 64 66
63 63 63 62 62 61 61 61 61 61 62 63 64 64 64 66 66 68 69 67 70 70 71 71 71 70 70 70 70 69 70 69 69 69 68 68 68 68 67 66 66 65 66 67 68 67 67 66 66 64 62 62 61 61 64 70 61 60 67 65 65 67 66 65 65 64 67 66 64 64 63 62 63 65
62 63 63 62 62 62 62 62 62 62 63 65 66 66 67 68 68 69 68 67 68 70 69 70 71 70 71 70 70 70 70 70 70 69 69 68 67 66 66 66 66 67 67 67 67 67 67 66 65 65 63 61 60 61 62 67 68 66 60 64 65 66 66 64 64 64 63 65 64 64 65 62 63 64
63 63 62 62 61 61 61 61 62 63 64 65 66 67 69 69 69 68 67 68 69 70 71 70 70 70 70 70 70 70 69 69 68 68 68 68 68 66 66 66 66 67 66 66 67 67 67 66 66 66 64 62 61 62 63 62 63 68 64 54 64 64 65 65 64 64 63 63 63 64 64 65 64 62
62 62 62 62 61 62 62 62 63 64 65 66 68 69 70 69 68 68 68 68 69 69 71 71 70 67 70 71 70 72 71 69 68 69 68 69 68 67 67 67 66 65 65 65 65 67 67 67 66 66 65 65 65 66 66 65 65 66 67 63 53 60 65 66 63 62 61 62 62 61 60 62 61 64
63 62 62 62 62 62 62 62 63 65 66 67 68 65 70 70 70 70 70 70 69 69 70 70 69 69 71 71 71 72 69 69 70 70 69 68 67 66 65 62 64 65 64 64 65 65 66 67 66 60 62 65 65 66 63 62 62 66 69 71 55 51 54 57 63 62 60 61 60 60 59 59 59 60
62 62 62 63 63 63 63 63 64 65 67 68 69 69 69 69 70 65 68 67 68 68 70 71 70 70 71 71 71 69 70 69 69 68 68 68 67 65 63 64 65 66 64 64 65 66 68 68 68 67 67 66 65 62 61 63 64 65 67 69 71 58 50 51 56 58 61 61 59 58 58 58 59 56
62 62 62 63 64 64 65 65 66 67 68 69 69 69 69 70 70 68 70 68 68 70 71 71 71 72 72 71 71 71 71 70 69 69 69 68 68 67 66 66 66 66 66 65 67 67 67 68 67 67 67 67 65 65 62 64 64 65 66 68 68 69 69 57 53 52 53 55 56 58 59 57 54 50
62 62 63 64 65 66 67 67 68 69 68 69 69 68 70 70 69 69 70 70 70 71 71 72 71 71 71 71 71 70 70 71 70 68 68 67 67 67 67 67 65 65 66 66 66 66 67 67 68 68 66 65 66 65 64 64 65 66 66 66 66 66 66 68 69 62 60 59 56 54 54 54 55 55
65 66 66 66 67 67 67 68 69 69 69 69 69 70 70 71 71 71 72 72 72 72 71 72 71 71 71 70 70 69 70 64 67 69 68 68 68 67 66 67 66 65 65 65 64 65 66 66 67 68 67 66 67 65 64 64 63 64 65 65 65 65 66 65 63 63 63 64 62 57 54 54 54 54
MSLP
1019.10 1019.34 1019.58 1019.86 1019.94 1019.94 1019.98 1020.14 1020.18 1020.34 1020.50 1020.62 1020.78 1020.94 1021.50 1021.94 1022.90 1023.30 1023.26 1022.82 1022.50 1021.66 1021.14 1021.58 1021.30 1020.90 1020.94 1021.02 1020.86 1021.06 1020.98 1020.98 1021.02 1020.90 1020.94 1020.98 1020.98 1021.10 1021.26 1021.30 1021.30 1021.30 1021.34 1021.34 1021.30 1021.26 1021.22 1021.18 1021.18 1021.14 1021.10 1021.06 1021.02 1021.02 1021.02 1020.98 1020.98 1020.94 1020.94 1020.86 1020.82 1020.82 1020.82 1020.86 1020.86 1020.86 1020.86 1020.86 1020.86 1020.82 1020.78 1020.74 1020.74 1020.74
1018.90 1019.06 1019.30 1019.50 1019.74 1019.70 1019.90 1020.02 1020.02 1020.22 1020.42 1020.54 1020.66 1020.78 1020.86 1021.14 1022.14 1022.46 1023.18 1022.82 1021.98 1021.90 1021.30 1021.10 1021.34 1021.22 1021.14 1020.98 1021.06 1020.90 1020.94 1020.94 1020.98 1020.86 1020.90 1020.86 1020.82 1021.02 1021.10 1021.14 1021.18 1021.26 1021.26 1021.26 1021.26 1021.26 1021.26 1021.22 1021.18 1021.10 1021.02 1020.94 1020.90 1020.86 1020.82 1020.78 1020.74 1020.70 1020.70 1020.66 1020.62 1020.58 1020.58 1020.58 1020.58 1020.58 1020.58 1020.62 1020.62 1020.66 1020.62 1020.58 1020.54 1020.54
1018.74 1019.06 1019.30 1019.34 1019.58 1019.58 1019.78 1019.82 1019.86 1020.02 1020.22 1020.34 1020.42 1020.54 1020.66 1020.94 1021.18 1021.74 1022.22 1023.02 1021.82 1021.38 1021.86 1021.30 1020.82 1021.06 1021.10 1020.86 1020.86 1020.82 1020.74 1020.78 1020.82 1020.74 1020.74 1020.74 1020.90 1021.06 1020.98 1021.10 1021.22 1021.26 1021.26 1021.30 1021.30 1021.30 1021.26 1021.22 1021.14 1021.06 1020.98 1020.82 1020.74 1020.66 1020.58 1020.50 1020.46 1020.42 1020.42 1020.38 1020.38 1020.34 1020.34 1020.34 1020.30 1020.26 1020.26 1020.26 1020.30 1020.34 1020.34 1020.34 1020.34 1020.34
1018.50 1018.82 1019.06 1019.18 1019.34 1019.42 1019.62 1019.74 1019.78 1019.90 1019.90 1019.98 1020.22 1020.34 1020.58 1020.74 1020.86 1021.14 1021.74 1022.38 1022.30 1021.38 1021.38 1021.34 1021.18 1020.90 1020.90 1020.86 1020.98 1020.82 1020.66 1020.74 1020.82 1020.62 1020.70 1020.74 1020.94 1020.82 1020.66 1020.90 1021.02 1021.10 1021.10 1021.10 1021.06 1021.06 1021.02 1020.94 1020.86 1020.78 1020.70 1020.62 1020.54 1020.46 1020.38 1020.34 1020.26 1020.22 1020.18 1020.18 1020.14 1020.18 1020.18 1020.14 1020.10 1020.10 1020.10 1020.06 1020.06 1020.06 1020.10 1020.10 1020.06 1020.02
1018.26 1018.54 1018.78 1018.86 1018.98 1019.10 1019.50 1019.58 1019.58 1019.62 1019.78 1019.86 1019.94 1020.10 1020.30 1020.58 1020.70 1021.02 1021.50 1021.94 1021.94 1021.34 1021.02 1021.14 1021.06 1020.82 1020.82 1020.98 1020.74 1020.86 1020.70 1020.74 1020.66 1020.66 1020.62 1020.66 1020.70 1020.66 1020.58 1020.50 1020.70 1020.86 1020.86 1020.82 1020.78 1020.74 1020.66 1020.62 1020.58 1020.54 1020.46 1020.42 1020.34 1020.30 1020.22 1020.18 1020.18 1020.14 1020.06 1020.02 1020.02 1019.98 1019.98 1019.98 1019.94 1019.90 1019.90 1019.86 1019.86 1019.82 1019.82 1019.82 1019.78 1019.74
1017.98 1018.26 1018.58 1018.66 1018.74 1018.86 1019.18 1019.26 1019.42 1019.38 1019.54 1019.66 1019.78 1019.98 1020.06 1020.26 1020.46 1020.46 1021.02 1021.34 1021.62 1021.78 1021.18 1021.22 1020.82 1020.98 1020.82 1021.22 1020.62 1020.86 1020.78 1020.74 1020.70 1020.70 1020.70 1020.62 1020.54 1020.58 1020.42 1020.34 1020.30 1020.54 1020.58 1020.54 1020.54 1020.50 1020.50 1020.46 1020.38 1020.30 1020.26 1020.22 1020.18 1020.14 1020.10 1020.10 1020.10 1020.02 1019.94 1019.86 1019.86 1019.78 1019.74 1019.70 1019.66 1019.62 1019.58 1019.58 1019.54 1019.54 1019.54 1019.54 1019.50 1019.46
1017.70 1018.06 1018.26 1018.34 1018.38 1018.58 1018.98 1019.10 1019.14 1019.10 1019.34 1019.38 1019.58 1019.74 1019.78 1020.06 1020.06 1020.26 1020.46 1020.90 1021.38 1021.46 1021.26 1020.78 1020.98 1020.94 1020.98 1021.02 1020.90 1020.74 1020.66 1020.62 1020.58 1020.70 1020.66 1020.58 1020.50 1020.42 1020.38 1020.26 1020.06 1020.30 1020.42 1020.42 1020.38 1020.34 1020.30 1020.26 1020.22 1020.14 1020.10 1020.06 1020.06 1019.98 1019.94 1019.90 1019.86 1019.78 1019.78 1019.74 1019.74 1019.70 1019.62 1019.58 1019.50 1019.46 1019.42 1019.38 1019.34 1019.30 1019.26 1019.26 1019.22 1019.18
1017.38 1017.62 1017.90 1017.90 1017.98 1018.22 1018.70 1018.86 1018.94 1018.98 1019.14 1019.38 1019.54 1019.66 1019.74 1019.94 1020.06 1020.10 1020.26 1020.42 1020.82 1020.98 1021.38 1020.90 1020.98 1020.70 1020.94 1020.82 1020.58 1020.58 1020.54 1020.58 1020.66 1020.62 1020.58 1020.42 1020.46 1020.30 1020.18 1020.18 1020.10 1020.14 1020.30 1020.26 1020.22 1020.18 1020.14 1020.10 1020.06 1020.02 1019.98 1019.94 1019.90 1019.86 1019.82 1019.78 1019.70 1019.70 1019.66 1019.62 1019.58 1019.54 1019.50 1019.46 1019.42 1019.34 1019.30 1019.22 1019.22 1019.18 1019.14 1019.06 1018.98 1018.94
1016.82 1017.06 1017.26 1017.38 1017.58 1017.86 1018.38 1018.58 1018.74 1018.82 1019.14 1019.22 1019.42 1019.62 1019.66 1019.86 1019.90 1019.98 1020.14 1020.34 1020.50 1020.86 1021.14 1020.90 1020.54 1020.46 1020.62 1020.50 1020.54 1020.50 1020.74 1020.66 1020.58 1020.46 1020.50 1020.34 1020.26 1020.22 1020.02 1019.86 1019.94 1020.02 1020.06 1019.98 1019.94 1019.94 1019.90 1019.86 1019.86 1019.86 1019.86 1019.82 1019.78 1019.74 1019.66 1019.66 1019.62 1019.62 1019.58 1019.54 1019.50 1019.42 1019.38 1019.34 1019.30 1019.22 1019.18 1019.10 1019.06 1019.02 1018.94 1018.90 1018.86 1018.82
1016.26 1016.46 1016.70 1016.86 1017.10 1017.50 1017.90 1018.18 1018.34 1018.58 1018.90 1019.10 1019.30 1019.42 1019.54 1019.62 1019.78 1020.02 1020.14 1020.22 1020.46 1020.66 1020.74 1020.74 1020.70 1020.42 1020.62 1020.62 1020.58 1020.50 1020.54 1020.74 1020.74 1020.54 1020.26 1020.14 1020.10 1020.22 1020.18 1019.94 1019.82 1019.70 1019.62 1019.54 1019.50 1019.58 1019.58 1019.58 1019.70 1019.70 1019.74 1019.78 1019.78 1019.70 1019.66 1019.58 1019.50 1019.46 1019.42 1019.38 1019.30 1019.26 1019.18 1019.14 1019.06 1018.98 1018.94 1018.86 1018.82 1018.82 1018.74 1018.70 1018.66 1018.66
1015.70 1015.90 1016.14 1016.46 1016.70 1017.10 1017.34 1017.66 1017.94 1018.22 1018.50 1018.74 1018.98 1019.06 1019.22 1019.34 1019.66 1019.94 1020.02 1020.14 1020.34 1020.46 1020.58 1020.46 1020.34 1020.38 1020.14 1020.38 1020.70 1020.38 1020.34 1020.38 1020.42 1020.62 1020.50 1020.34 1019.94 1019.98 1020.14 1020.22 1019.82 1019.50 1019.46 1019.38 1019.42 1019.46 1019.46 1019.46 1019.42 1019.46 1019.54 1019.54 1019.54 1019.50 1019.42 1019.34 1019.22 1019.22 1019.18 1019.14 1019.10 1019.06 1018.98 1018.94 1018.86 1018.82 1018.74 1018.66 1018.58 1018.54 1018.54 1018.54 1018.54 1018.50
1015.26 1015.42 1015.66 1015.90 1016.22 1016.54 1016.78 1017.10 1017.38 1017.62 1017.98 1018.06 1018.38 1018.46 1018.70 1018.94 1019.26 1019.54 1019.66 1019.86 1019.98 1020.22 1020.34 1020.38 1020.26 1020.10 1020.26 1020.22 1020.10 1020.10 1020.22 1020.38 1020.34 1020.22 1020.42 1020.66 1020.38 1020.18 1019.98 1019.94 1020.02 1019.66 1019.58 1019.46 1019.06 1019.14 1019.22 1019.18 1019.22 1019.30 1019.30 1019.22 1019.22 1019.18 1019.06 1018.90 1018.82 1018.86 1018.94 1018.98 1018.98 1018.94 1018.90 1018.82 1018.74 1018.66 1018.58 1018.50 1018.46 1018.38 1018.34 1018.30 1018.26 1018.26
1014.98 1015.10 1015.26 1015.46 1015.66 1015.98 1016.30 1016.54 1016.70 1016.86 1016.98 1017.34 1017.82 1017.98 1018.18 1018.54 1018.82 1019.10 1019.26 1019.46 1019.66 1019.86 1020.02 1020.14 1019.98 1020.14 1020.22 1020.10 1020.18 1020.26 1020.30 1020.38 1020.38 1020.14 1020.26 1020.58 1020.30 1020.14 1020.02 1019.78 1019.58 1019.70 1019.74 1019.50 1019.34 1019.26 1019.14 1019.18 1019.10 1019.02 1018.98 1018.78 1018.82 1018.70 1018.78 1018.66 1018.62 1018.70 1018.78 1018.82 1018.82 1018.78 1018.74 1018.74 1018.70 1018.62 1018.50 1018.38 1018.30 1018.22 1018.18 1018.14 1018.10 1018.06
1014.70 1014.78 1014.94 1015.06 1015.34 1015.66 1015.94 1016.22 1016.38 1016.50 1016.66 1016.66 1016.74 1017.14 1017.62 1017.98 1018.34 1018.62 1018.94 1019.18 1019.34 1019.58 1019.86 1019.90 1019.90 1020.06 1020.06 1019.94 1019.90 1019.94 1019.82 1019.70 1019.86 1020.14 1020.26 1020.50 1020.26 1020.26 1020.22 1019.94 1019.62 1019.54 1019.66 1019.66 1019.74 1019.46 1019.06 1019.06 1019.06 1018.98 1018.90 1018.54 1018.58 1018.42 1018.30 1018.18 1018.38 1018.58 1018.70 1018.70 1018.70 1018.66 1018.62 1018.54 1018.46 1018.38 1018.34 1018.26 1018.18 1018.06 1018.02 1017.94 1017.90 1017.86
1014.42 1014.50 1014.66 1014.82 1015.14 1015.46 1015.70 1015.82 1015.94 1016.14 1016.34 1016.50 1016.62 1016.74 1016.94 1017.18 1017.62 1018.18 1018.58 1018.74 1018.86 1019.22 1019.42 1019.34 1019.54 1019.66 1019.74 1019.54 1019.34 1019.50 1019.38 1019.50 1019.70 1019.86 1020.06 1020.26 1020.38 1020.58 1020.74 1020.74 1019.82 1019.38 1019.74 1019.86 1019.82 1019.54 1019.02 1019.02 1019.18 1018.94 1018.74 1018.50 1018.34 1018.22 1018.14 1018.42 1018.54 1018.62 1018.62 1018.58 1018.54 1018.46 1018.38 1018.30 1018.22 1018.14 1018.10 1018.10 1018.06 1018.02 1017.94 1017.86 1017.78 1017.70
1013.86 1014.14 1014.42 1014.58 1014.78 1014.98 1015.06 1015.26 1015.62 1015.86 1015.98 1016.22 1016.42 1016.62 1016.82 1017.06 1017.18 1017.22 1017.62 1018.14 1018.58 1018.78 1019.06 1019.26 1019.22 1019.26 1019.38 1019.30 1019.22 1019.18 1019.22 1019.46 1019.54 1019.66 1019.94 1020.26 1020.42 1020.54 1020.58 1020.42 1020.46 1019.62 1019.62 1019.98 1019.94 1019.58 1018.90 1018.78 1018.94 1018.90 1018.62 1018.38 1018.18 1018.10 1018.30 1018.42 1018.50 1018.50 1018.46 1018.42 1018.42 1018.34 1018.22 1018.10 1018.02 1017.98 1017.90 1017.86 1017.82 1017.78 1017.70 1017.66 1017.62 1017.54
1013.30 1013.66 1014.06 1014.34 1014.42 1014.38 1014.58 1014.82 1014.94 1015.30 1015.82 1016.14 1016.26 1016.42 1016.62 1016.82 1016.94 1017.14 1017.26 1017.30 1017.62 1017.86 1018.46 1018.78 1018.86 1018.90 1018.90 1019.18 1019.06 1018.94 1019.10 1019.14 1019.58 1019.62 1019.86 1019.90 1020.10 1020.22 1020.38 1020.22 1019.94 1019.62 1019.46 1019.82 1019.82 1019.66 1018.98 1018.82 1018.82 1018.70 1018.38 1018.14 1018.02 1018.06 1018.06 1018.30 1018.38 1018.34 1018.30 1018.26 1018.18 1018.14 1018.06 1017.98 1017.86 1017.78 1017.70 1017.62 1017.58 1017.50 1017.46 1017.38 1017.34 1017.30
1012.74 1013.06 1013.42 1013.82 1014.06 1013.94 1014.14 1014.34 1014.66 1014.98 1015.30 1015.66 1016.06 1016.30 1016.38 1016.46 1016.58 1016.82 1017.02 1017.26 1017.46 1017.58 1017.82 1018.14 1018.54 1018.26 1018.34 1018.78 1018.70 1018.70 1018.78 1019.22 1019.46 1019.58 1019.82 1019.82 1020.10 1020.18 1020.14 1019.94 1019.94 1019.54 1019.30 1019.74 1019.78 1019.70 1018.98 1018.54 1018.66 1018.66 1018.22 1017.94 1018.02 1017.98 1018.02 1018.14 1018.06 1018.06 1018.06 1018.02 1017.94 1017.86 1017.78 1017.70 1017.62 1017.50 1017.42 1017.38 1017.30 1017.26 1017.22 1017.14 1017.06 1016.94
1012.10 1012.34 1012.62 1012.90 1013.18 1013.38 1013.74 1014.06 1014.38 1014.62 1014.78 1015.02 1015.30 1015.58 1015.74 1015.74 1015.74 1015.94 1016.26 1016.62 1016.90 1017.26 1017.38 1017.54 1017.70 1017.86 1018.02 1018.18 1018.38 1018.50 1018.58 1018.78 1018.94 1019.18 1019.46 1019.70 1019.90 1019.98 1019.90 1019.70 1019.46 1019.26 1019.10 1019.38 1019.62 1019.90 1019.02 1018.54 1018.66 1018.42 1018.10 1017.94 1017.98 1017.90 1017.86 1017.82 1017.78 1017.82 1017.78 1017.74 1017.66 1017.54 1017.46 1017.38 1017.30 1017.26 1017.22 1017.10 1017.02 1016.94 1016.90 1016.86 1016.82 1016.74
1011.54 1011.66 1011.98 1012.34 1012.70 1012.98 1013.22 1013.42 1013.74 1013.94 1014.14 1014.54 1014.86 1015.18 1015.22 1015.26 1015.30 1015.38 1015.50 1015.70 1016.06 1016.42 1016.74 1016.98 1017.18 1017.38 1017.62 1017.94 1018.10 1018.22 1018.34 1018.62 1018.82 1019.06 1019.26 1019.58 1019.94 1020.06 1020.02 1020.02 1019.26 1019.22 1018.86 1019.22 1019.50 1019.54 1019.14 1018.58 1018.66 1018.42 1018.06 1018.02 1018.10 1017.90 1017.70 1017.50 1017.50 1017.50 1017.50 1017.42 1017.30 1017.22 1017.18 1017.10 1017.06 1017.02 1016.94 1016.86 1016.78 1016.70 1016.62 1016.54 1016.54 1016.54
1010.98 1011.22 1011.42 1011.74 1012.18 1012.46 1012.66 1012.86 1013.30 1013.70 1013.98 1014.34 1014.62 1014.78 1014.94 1014.94 1015.10 1015.30 1015.62 1015.98 1016.26 1016.58 1016.86 1017.14 1017.42 1017.66 1017.94 1018.18 1018.42 1018.54 1018.62 1018.66 1018.74 1019.10 1019.54 1019.78 1019.42 1019.86 1020.14 1019.78 1019.54 1019.26 1018.86 1018.78 1018.94 1019.26 1019.26 1018.70 1018.62 1018.54 1018.22 1018.18 1018.14 1017.86 1017.54 1017.22 1017.14 1017.22 1017.18 1017.06 1016.94 1016.82 1016.78 1016.78 1016.78 1016.70 1016.62 1016.58 1016.50 1016.46 1016.38 1016.30 1016.22 1016.18
1010.62 1010.70 1011.02 1011.34 1011.66 1011.98 1012.22 1012.74 1013.42 1013.86 1014.10 1014.38 1014.54 1014.74 1014.82 1014.94 1015.10 1015.18 1015.30 1015.82 1016.46 1016.86 1017.10 1017.42 1017.62 1017.82 1018.06 1018.26 1018.50 1018.66 1018.78 1018.94 1018.98 1019.14 1019.50 1019.02 1019.10 1019.66 1019.66 1019.90 1019.62 1019.18 1018.98 1018.90 1018.86 1019.30 1019.06 1018.66 1018.54 1018.62 1018.22 1018.06 1017.70 1017.46 1017.26 1017.14 1016.98 1016.86 1016.70 1016.58 1016.50 1016.42 1016.38 1016.46 1016.42 1016.38 1016.30 1016.22 1016.18 1016.14 1016.10 1016.06 1016.06 1015.74
1010.34 1010.54 1010.82 1011.18 1011.38 1011.66 1012.10 1012.78 1013.26 1013.66 1013.94 1014.18 1014.34 1014.58 1014.74 1014.90 1014.94 1014.78 1014.98 1015.50 1016.22 1016.74 1017.10 1017.42 1017.66 1017.98 1018.10 1018.18 1018.26 1018.50 1018.82 1018.94 1018.98 1018.82 1018.78 1018.74 1019.18 1019.42 1019.42 1019.38 1019.50 1019.54 1019.02 1018.70 1018.90 1019.42 1018.94 1018.86 1018.46 1018.58 1018.54 1018.34 1017.58 1017.22 1017.22 1017.06 1016.82 1016.62 1016.38 1016.14 1016.02 1015.98 1016.06 1016.06 1016.06 1015.98 1015.94 1015.90 1015.86 1015.82 1015.82 1015.74 1015.86 1015.42
1010.10 1010.22 1010.50 1010.94 1011.38 1011.58 1011.90 1012.34 1012.82 1013.22 1013.50 1013.54 1013.82 1014.18 1014.58 1014.74 1014.82 1014.38 1014.74 1015.10 1015.54 1016.22 1016.50 1016.94 1017.26 1017.50 1017.70 1017.90 1018.10 1018.30 1018.66 1018.82 1018.74 1018.58 1018.58 1018.62 1018.82 1019.22 1019.30 1019.26 1019.42 1019.54 1019.22 1018.58 1018.66 1019.26 1018.90 1018.70 1018.58 1018.26 1018.38 1018.50 1018.10 1017.30 1016.94 1016.78 1016.66 1016.46 1016.18 1016.02 1015.86 1015.66 1015.66 1015.62 1015.50 1015.46 1015.50 1015.50 1015.54 1015.54 1015.54 1015.46 1015.62 1015.30
1009.54 1009.86 1010.14 1010.30 1010.98 1011.38 1011.70 1012.14 1012.54 1012.90 1013.14 1013.10 1013.26 1013.62 1014.02 1014.10 1013.98 1014.10 1014.58 1015.18 1015.46 1015.90 1016.34 1016.78 1017.10 1017.38 1017.66 1017.86 1017.94 1018.10 1018.22 1018.18 1018.18 1018.30 1018.38 1018.38 1018.54 1018.86 1019.10 1019.10 1019.02 1018.94 1018.66 1018.46 1018.78 1019.06 1019.10 1018.66 1018.54 1018.26 1018.10 1018.10 1017.66 1017.30 1016.82 1016.74 1016.46 1016.26 1015.98 1015.82 1015.70 1015.46 1015.38 1015.18 1015.10 1014.94 1014.86 1014.98 1015.06 1015.14 1015.18 1015.18 1015.22 1015.22
1008.78 1009.06 1009.58 1009.86 1010.50 1011.18 1011.58 1011.98 1012.46 1012.82 1012.98 1012.94 1012.94 1013.14 1013.38 1013.70 1014.02 1014.18 1014.30 1014.82 1015.38 1015.74 1016.18 1016.50 1016.90 1017.18 1017.46 1017.70 1017.74 1017.78 1017.78 1017.78 1017.86 1017.94 1018.06 1018.18 1018.22 1018.38 1018.50 1018.82 1019.10 1019.14 1018.90 1018.58 1018.86 1018.86 1018.94 1018.78 1018.42 1018.30 1018.06 1018.02 1017.54 1017.26 1016.98 1016.66 1016.22 1015.86 1015.78 1015.58 1015.46 1015.30 1015.18 1015.02 1014.86 1014.74 1014.62 1014.46 1014.38 1014.50 1014.62 1014.74 1014.78 1014.82
1007.94 1008.30 1008.98 1009.42 1010.18 1010.90 1011.42 1011.98 1012.50 1012.86 1012.86 1012.94 1012.78 1012.90 1013.38 1013.70 1013.90 1014.10 1014.30 1014.78 1015.22 1015.58 1015.90 1016.30 1016.78 1017.02 1017.22 1017.46 1017.58 1017.62 1017.66 1017.50 1017.58 1017.70 1017.78 1017.94 1018.18 1018.34 1018.42 1018.50 1018.62 1018.74 1018.62 1018.50 1018.50 1018.62 1018.74 1018.58 1018.22 1018.22 1018.14 1017.90 1017.78 1017.30 1016.98 1016.58 1016.10 1015.78 1015.66 1015.42 1015.30 1015.14 1014.90 1014.74 1014.70 1014.62 1014.46 1014.38 1014.26 1014.26 1014.34 1014.22 1014.22 1014.18
1007.18 1007.98 1008.62 1009.26 1009.98 1010.66 1011.18 1011.78 1012.38 1012.74 1012.78 1012.66 1012.74 1013.10 1013.30 1013.58 1013.86 1013.94 1014.34 1014.78 1015.06 1015.38 1015.82 1016.30 1016.58 1016.82 1016.94 1017.10 1017.26 1017.34 1017.34 1017.30 1017.54 1017.66 1017.78 1017.98 1018.10 1018.26 1018.30 1018.42 1018.54 1018.50 1018.50 1018.42 1018.30 1018.34 1018.42 1018.38 1018.06 1017.86 1017.86 1017.86 1017.74 1017.46 1017.10 1016.38 1016.06 1015.82 1015.70 1015.30 1015.18 1014.94 1014.74 1014.70 1014.58 1014.50 1014.38 1014.22 1014.10 1013.98 1013.90 1013.62 1013.38 1013.38
1006.46 1007.14 1007.94 1008.70 1009.46 1009.94 1010.50 1011.10 1011.94 1012.50 1012.58 1012.54 1012.82 1013.02 1013.22 1013.54 1013.70 1013.86 1014.10 1014.46 1014.82 1015.30 1015.70 1015.94 1016.18 1016.42 1016.70 1016.74 1016.82 1016.94 1017.10 1017.26 1017.46 1017.74 1017.90 1017.94 1018.02 1018.10 1018.26 1018.34 1018.38 1018.38 1018.38 1018.18 1018.10 1018.10 1018.10 1018.06 1017.86 1017.66 1017.66 1017.54 1017.46 1017.06 1016.90 1016.54 1016.14 1015.78 1015.58 1015.50 1015.18 1014.86 1014.74 1014.58 1014.46 1014.42 1014.30 1014.22 1014.10 1013.90 1013.74 1013.50 1013.30 1013.14
1006.34 1006.98 1007.74 1008.54 1009.26 1010.06 1010.58 1011.06 1011.70 1012.14 1012.58 1012.86 1012.82 1012.94 1013.22 1013.34 1013.42 1013.62 1013.86 1014.22 1014.58 1014.94 1015.26 1015.50 1015.82 1016.02 1016.30 1016.62 1016.74 1016.98 1017.14 1017.34 1017.54 1017.66 1017.82 1017.94 1018.02 1018.06 1018.18 1018.30 1018.18 1018.06 1017.90 1017.86 1017.86 1017.82 1017.82 1017.78 1017.74 1017.66 1017.54 1017.34 1017.14 1016.94 1016.62 1016.38 1016.06 1015.70 1015.46 1015.34 1014.98 1014.70 1014.46 1014.38 1014.34 1014.22 1014.18 1014.10 1013.90 1013.66 1013.34 1013.18 1013.02 1012.94
1006.66 1007.14 1007.78 1008.50 1009.38 1010.22 1010.98 1011.26 1011.46 1011.98 1012.74 1013.14 1013.06 1013.02 1013.06 1013.10 1013.26 1013.38 1013.46 1013.66 1014.06 1014.46 1014.78 1015.10 1015.38 1015.66 1015.98 1016.34 1016.86 1017.14 1017.26 1017.38 1017.38 1017.38 1017.62 1017.70 1017.66 1017.82 1017.90 1018.18 1018.18 1017.94 1017.74 1017.62 1017.50 1017.54 1017.50 1017.50 1017.46 1017.46 1017.46 1017.14 1016.86 1016.66 1016.38 1016.22 1016.02 1015.66 1015.26 1014.98 1014.90 1015.10 1014.46 1014.26 1014.10 1013.98 1013.90 1013.82 1013.66 1013.42 1013.14 1012.90 1012.66 1012.46
1006.86 1007.50 1007.98 1008.54 1009.34 1010.14 1011.02 1011.50 1012.02 1012.62 1013.02 1012.98 1012.86 1012.86 1012.98 1013.06 1013.06 1013.18 1013.26 1013.46 1013.74 1014.06 1014.26 1014.66 1015.06 1015.58 1016.06 1016.54 1016.70 1016.78 1016.94 1016.94 1017.02 1017.18 1017.42 1017.54 1017.58 1017.58 1017.82 1018.18 1018.06 1017.82 1017.66 1017.58 1017.38 1017.30 1017.34 1017.26 1017.26 1017.18 1017.14 1017.06 1016.94 1016.50 1016.22 1016.02 1015.86 1015.50 1015.22 1014.86 1014.66 1014.46 1014.26 1014.14 1013.90 1013.70 1013.62 1013.74 1013.66 1013.30 1012.98 1012.66 1012.38 1012.10
1007.18 1007.74 1008.38 1008.78 1009.26 1010.02 1010.78 1011.74 1012.54 1013.14 1013.38 1013.18 1012.82 1012.82 1012.98 1013.02 1013.14 1013.34 1013.42 1013.66 1013.86 1014.02 1014.34 1014.70 1015.10 1015.54 1015.94 1016.26 1016.34 1016.46 1016.58 1016.70 1016.82 1017.02 1017.30 1017.46 1017.58 1017.62 1017.78 1017.90 1017.74 1017.74 1017.74 1017.54 1017.42 1017.30 1017.06 1016.98 1016.98 1016.94 1016.78 1016.62 1016.46 1016.34 1016.18 1015.94 1015.46 1015.22 1015.06 1014.78 1014.62 1014.46 1014.18 1013.94 1013.86 1013.74 1013.66 1013.62 1013.42 1013.06 1012.70 1012.42 1012.10 1011.78
1007.02 1007.74 1008.46 1008.74 1009.02 1009.50 1010.38 1011.50 1012.66 1013.50 1013.70 1013.26 1012.94 1013.10 1013.22 1013.10 1013.06 1013.18 1013.26 1013.34 1013.54 1013.86 1014.14 1014.42 1014.82 1015.30 1015.66 1015.98 1016.10 1016.18 1016.26 1016.42 1016.58 1016.90 1017.18 1017.38 1017.46 1017.66 1017.66 1017.70 1017.58 1017.58 1017.74 1017.66 1017.42 1017.18 1017.02 1016.90 1016.74 1016.54 1016.30 1016.10 1015.86 1015.78 1015.70 1015.62 1015.38 1015.06 1014.90 1014.78 1014.70 1014.50 1014.10 1013.90 1013.74 1013.70 1013.66 1013.54 1013.30 1012.98 1012.50 1012.02 1011.62 1011.30
1005.82 1006.62 1007.34 1008.06 1008.46 1008.66 1009.10 1010.26 1011.62 1012.86 1013.26 1013.22 1013.10 1013.18 1013.34 1013.18 1013.02 1012.98 1013.10 1013.10 1013.34 1013.66 1013.94 1014.22 1014.54 1014.94 1015.30 1015.50 1015.66 1015.82 1015.90 1016.06 1016.34 1016.74 1017.02 1017.06 1017.34 1017.34 1017.26 1017.34 1017.38 1017.46 1017.50 1017.42 1017.22 1017.02 1017.02 1016.86 1016.62 1016.30 1015.98 1015.70 1015.42 1014.94 1014.82 1014.90 1015.06 1014.94 1014.82 1014.74 1014.50 1014.38 1014.18 1013.94 1013.78 1013.62 1013.54 1013.30 1013.02 1012.82 1012.22 1011.66 1011.18 1010.78
1005.66 1005.94 1006.38 1006.98 1007.58 1008.06 1008.70 1009.46 1010.66 1011.66 1012.34 1012.86 1013.02 1013.30 1013.46 1013.14 1012.82 1012.94 1012.90 1012.86 1013.06 1013.38 1013.66 1014.06 1014.42 1014.78 1014.98 1015.14 1015.26 1015.38 1015.50 1015.74 1016.02 1016.38 1016.74 1016.86 1016.94 1016.94 1016.94 1017.10 1017.22 1017.30 1017.30 1017.22 1017.06 1016.82 1016.82 1016.70 1016.46 1016.30 1016.02 1015.62 1015.38 1015.10 1014.62 1014.50 1014.74 1014.82 1014.98 1014.74 1014.46 1014.38 1014.18 1013.94 1013.82 1013.62 1013.34 1013.02 1012.78 1012.66 1012.22 1011.50 1010.82 1010.34
1005.94 1006.46 1006.86 1007.26 1007.58 1007.90 1008.50 1009.54 1010.34 1011.02 1011.74 1012.34 1012.66 1012.78 1012.78 1012.58 1012.58 1012.50 1012.46 1012.78 1012.90 1013.10 1013.34 1013.66 1014.06 1014.38 1014.66 1014.78 1014.94 1015.14 1015.26 1015.62 1015.82 1016.06 1016.30 1016.42 1016.54 1016.62 1016.78 1016.90 1017.06 1017.14 1017.14 1016.94 1016.82 1016.70 1016.66 1016.50 1016.26 1016.18 1016.02 1015.70 1015.54 1015.30 1014.82 1014.34 1014.62 1014.70 1014.74 1014.70 1014.50 1014.22 1014.10 1013.98 1013.78 1013.42 1013.02 1012.90 1012.62 1012.38 1011.98 1011.46 1010.74 1010.10
1005.26 1005.94 1006.66 1007.14 1007.26 1007.34 1007.86 1008.90 1009.98 1010.74 1011.26 1011.74 1012.10 1012.30 1012.18 1011.98 1011.98 1012.18 1012.46 1012.82 1012.94 1013.06 1013.38 1013.62 1013.78 1014.06 1014.18 1014.38 1014.62 1014.82 1015.02 1015.26 1015.42 1015.78 1015.94 1016.10 1016.34 1016.42 1016.46 1016.58 1016.62 1016.70 1016.74 1016.70 1016.62 1016.50 1016.38 1016.30 1016.14 1015.98 1015.98 1015.90 1015.66 1015.30 1014.90 1014.38 1014.38 1014.26 1014.34 1014.54 1014.42 1014.18 1014.02 1013.90 1013.58 1013.26 1012.94 1012.66 1012.46 1012.06 1011.78 1011.30 1010.58 1009.98
1004.50 1005.50 1006.46 1007.14 1007.58 1007.70 1007.98 1008.46 1009.18 1009.98 1010.58 1011.26 1011.62 1011.58 1011.50 1011.50 1011.74 1012.10 1012.46 1012.58 1012.70 1012.90 1013.10 1013.42 1013.62 1013.78 1013.86 1014.02 1014.22 1014.42 1014.78 1015.10 1015.42 1015.54 1015.70 1015.78 1015.94 1016.10 1016.22 1016.30 1016.38 1016.34 1016.50 1016.46 1016.30 1016.18 1016.06 1015.98 1015.82 1015.74 1015.74 1015.78 1015.70 1015.38 1015.22 1015.14 1014.74 1014.26 1014.06 1014.22 1014.22 1014.22 1013.90 1013.70 1013.50 1013.26 1012.98 1012.54 1012.10 1011.86 1011.50 1010.94 1010.34 1009.82
1004.70 1005.38 1005.98 1006.50 1006.94 1007.42 1007.86 1008.22 1008.74 1009.22 1009.98 1010.50 1010.74 1010.90 1011.02 1011.22 1011.50 1011.86 1012.10 1012.30 1012.50 1012.70 1012.86 1013.10 1013.26 1013.50 1013.62 1013.70 1013.94 1014.10 1014.42 1014.82 1015.10 1015.22 1015.38 1015.46 1015.58 1015.78 1015.90 1015.98 1016.14 1016.26 1016.34 1016.22 1016.06 1015.82 1015.78 1015.70 1015.62 1015.66 1015.66 1015.62 1015.46 1015.34 1015.22 1015.06 1014.70 1014.22 1013.94 1013.62 1013.78 1013.94 1013.74 1013.62 1013.54 1013.34 1012.94 1012.58 1012.34 1011.86 1011.14 1010.54 1010.02 1009.30
1004.78 1005.50 1006.14 1006.54 1006.98 1007.30 1007.62 1007.94 1008.30 1008.98 1009.54 1009.90 1010.30 1010.54 1010.66 1010.78 1011.10 1011.34 1011.54 1011.82 1012.14 1012.54 1012.78 1012.90 1013.06 1013.18 1013.18 1013.46 1013.66 1013.86 1014.30 1014.58 1014.74 1014.90 1015.10 1015.22 1015.46 1015.66 1015.78 1016.06 1016.06 1015.94 1015.98 1015.90 1015.82 1015.70 1015.58 1015.50 1015.58 1015.74 1015.70 1015.46 1015.26 1015.18 1015.02 1014.74 1014.26 1013.50 1013.14 1012.86 1013.18 1013.46 1013.46 1013.58 1013.50 1013.38 1013.06 1012.70 1012.38 1011.86 1011.18 1010.58 1009.94 1009.42
1004.54 1005.14 1005.70 1006.14 1006.54 1006.98 1007.30 1007.74 1008.14 1008.66 1009.18 1009.62 1009.90 1010.18 1010.42 1010.66 1010.78 1011.02 1011.42 1011.82 1012.06 1012.30 1012.38 1012.50 1012.66 1012.74 1012.90 1013.22 1013.50 1013.78 1013.94 1014.22 1014.50 1014.70 1014.86 1014.98 1015.22 1015.50 1015.82 1015.78 1015.62 1015.50 1015.62 1015.58 1015.46 1015.42 1015.30 1015.34 1015.30 1015.22 1015.06 1014.98 1014.94 1014.94 1014.54 1014.18 1013.82 1013.46 1013.18 1012.98 1012.66 1012.90 1013.22 1013.22 1013.18 1013.10 1012.94 1012.74 1012.42 1011.94 1011.26 1010.54 1010.10 1009.70
1004.50 1005.06 1005.54 1005.90 1006.26 1006.66 1007.02 1007.34 1007.78 1008.26 1008.78 1009.18 1009.46 1009.74 1010.06 1010.34 1010.66 1011.10 1011.18 1011.62 1011.86 1011.98 1011.98 1012.14 1012.26 1012.38 1012.66 1012.98 1013.26 1013.50 1013.66 1013.94 1014.18 1014.38 1014.54 1014.78 1014.94 1015.02 1015.10 1015.14 1015.14 1015.14 1015.18 1015.18 1015.18 1015.18 1015.14 1015.06 1014.98 1014.86 1014.70 1014.58 1014.46 1014.50 1014.38 1014.02 1013.70 1013.42 1013.10 1012.78 1012.66 1012.58 1012.54 1012.62 1012.66 1012.66 1012.50 1012.30 1012.22 1012.02 1011.70 1011.38 1011.10 1010.58
1004.26 1004.78 1005.14 1005.42 1005.82 1006.18 1006.50 1006.94 1007.50 1007.98 1008.42 1008.78 1009.10 1009.50 1009.78 1010.06 1010.46 1010.70 1010.86 1011.14 1011.38 1011.54 1011.62 1011.74 1011.94 1012.18 1012.54 1012.78 1013.10 1013.34 1013.50 1013.62 1013.82 1014.14 1014.34 1014.50 1014.66 1014.74 1014.74 1014.78 1014.90 1014.98 1014.94 1014.90 1014.94 1014.94 1014.86 1014.82 1014.62 1014.50 1014.46 1014.30 1014.10 1014.10 1014.02 1013.82 1013.50 1013.18 1012.98 1012.82 1012.66 1012.58 1012.42 1012.18 1012.02 1011.90 1011.70 1011.50 1011.34 1011.34 1011.26 1011.18 1010.98 1010.66
1003.78 1004.14 1004.66 1005.14 1005.54 1005.86 1006.26 1006.74 1007.26 1007.70 1008.06 1008.42 1008.82 1009.22 1009.50 1009.74 1010.02 1010.26 1010.50 1010.70 1010.94 1011.14 1011.34 1011.46 1011.74 1012.02 1012.30 1012.62 1012.94 1013.18 1013.26 1013.50 1013.70 1013.82 1014.02 1014.18 1014.34 1014.50 1014.58 1014.58 1014.66 1014.70 1014.74 1014.70 1014.82 1014.74 1014.66 1014.58 1014.38 1014.14 1014.06 1013.90 1013.78 1013.82 1013.82 1013.74 1013.58 1013.34 1012.98 1012.74 1012.58 1012.42 1012.34 1012.14 1011.98 1011.66 1011.34 1010.98 1010.74 1010.78 1010.74 1010.70 1010.50 1010.14
Wind_Speed
7 6 7 6 5 5 4 4 4 3 3 3 3 4 4 3 3 4 4 3 4 2 3 4 2 1 2 2 2 1 1 2 3 2 2 1 1 2 1 3 5 6 7 8 9 10 10 11 11 11 12 12 12 12 12 11 11 12 11 12 12 12 11 11 11 10 10 11 11 11 12 13 13 13
6 6 6 6 5 5 5 5 5 4 4 4 4 4 4 3 4 3 4 4 3 3 2 4 1 2 3 3 2 1 1 3 2 0 0 1 1 2 4 4 5 6 7 8 9 10 10 11 11 12 12 11 11 11 11 11 10 11 10 11 12 12 12 11 11 11 11 11 11 11 13 13 13 13
6 6 7 6 5 5 5 5 5 4 5 5 5 4 4 4 4 4 3 5 1 2 3 2 3 0 3 2 2 2 2 2 2 2 1 1 2 3 3 4 5 6 7 7 8 9 9 10 11 11 11 11 11 11 10 10 10 10 10 10 10 10 10 10 11 11 11 11 11 11 12 12 13 14
6 7 8 7 6 5 5 5 5 5 5 5 5 5 5 4 4 4 4 5 6 3 3 2 1 3 3 3 4 4 2 4 5 2 1 1 2 3 1 6 5 5 6 6 7 8 9 10 10 10 10 10 10 10 10 11 11 11 10 10 9 9 9 9 9 9 9 10 10 11 11 12 13 14
7 8 8 7 7 6 6 5 5 5 5 5 5 5 5 5 5 5 5 5 5 2 3 3 2 2 3 4 5 5 3 4 3 2 2 2 2 1 1 1 7 6 6 6 7 8 9 9 9 9 9 9 10 10 11 11 10 10 10 9 9 8 8 7 7 8 8 8 9 10 11 12 13 14
7 7 8 8 7 7 7 6 6 6 6 6 6 5 5 5 5 5 5 5 4 6 3 4 3 3 4 4 3 4 3 3 3 3 3 3 2 1 1 2 0 4 4 5 6 7 8 8 9 9 9 8 9 10 9 8 8 8 8 7 7 7 7 7 7 7 7 8 8 9 10 11 12 13
8 8 8 9 8 6 7 7 7 7 7 6 6 6 5 5 5 4 5 5 5 5 5 3 4 3 4 4 3 4 3 2 2 2 2 0 1 1 1 2 2 4 4 5 6 6 7 7 8 8 8 9 9 9 9 8 8 7 7 7 7 8 8 8 9 8 8 8 9 10 10 10 10 11
9 10 10 10 9 8 8 8 7 6 7 6 6 6 5 5 5 4 5 6 5 5 5 4 4 4 4 4 3 3 3 3 2 1 1 2 3 3 3 3 2 2 3 6 7 6 6 7 7 7 8 8 7 7 7 7 7 7 7 8 8 9 9 10 10 9 9 9 8 9 10 11 11 11
10 11 11 10 10 9 9 9 8 8 8 7 6 6 5 5 5 4 5 5 5 5 6 5 4 4 4 4 3 2 2 2 2 3 3 3 3 3 3 3 1 4 8 8 8 6 7 7 6 6 6 7 7 7 6 6 7 7 8 9 9 10 10 9 9 9 9 9 9 9 10 11 12 12
11 11 11 10 10 10 10 9 9 8 9 7 7 7 6 6 6 6 6 5 5 6 6 6 6 5 5 4 4 2 2 3 3 3 3 4 4 3 2 1 1 2 3 3 2 6 7 8 7 6 4 4 5 6 6 7 8 8 9 9 9 9 10 10 10 10 10 10 10 10 10 10 11 11
12 12 11 10 10 11 11 10 10 9 10 8 9 8 8 7 7 6 6 6 6 6 6 6 6 6 4 3 4 3 2 3 3 4 4 3 2 2 1 2 2 3 3 5 8 5 5 6 6 2 4 4 5 6 8 10 11 9 8 8 8 8 9 9 10 10 10 10 10 10 10 9 9 10
12 12 12 11 11 11 10 10 10 10 10 9 9 8 7 7 7 7 7 7 7 7 7 7 7 5 4 3 3 3 3 3 3 2 3 6 5 5 3 2 3 3 4 5 4 6 7 8 8 8 8 9 8 9 10 11 9 6 5 7 7 7 8 9 10 10 11 11 11 10 10 10 9 9
12 11 11 11 11 11 11 13 11 12 10 9 9 8 8 7 7 7 6 7 6 7 7 8 6 6 5 5 4 4 4 5 4 1 2 4 5 5 6 4 2 2 3 4 5 5 5 5 6 6 6 5 6 8 9 8 11 10 7 6 7 8 8 8 8 9 10 11 11 10 10 10 10 10
12 12 11 10 13 13 14 14 15 14 14 13 10 8 8 8 7 7 7 7 7 7 8 8 7 7 7 6 6 6 5 3 2 3 4 5 4 4 6 5 3 2 4 4 5 5 5 6 6 6 7 6 5 6 5 4 7 7 8 9 9 8 8 9 10 10 9 9 10 10 10 10 10 10
12 11 11 9 11 13 13 14 17 15 16 15 14 11 10 9 9 8 8 8 8 8 8 7 6 7 7 6 6 6 5 3 3 3 2 3 4 6 6 6 4 2 3 5 6 6 5 6 7 6 7 6 6 5 4 5 4 6 8 9 9 9 9 10 10 10 10 9 8 9 10 10 10 11
11 11 10 9 9 11 13 12 13 15 16 16 15 14 11 11 11 10 9 8 8 8 7 7 7 7 6 6 5 6 4 3 3 3 3 4 6 7 6 6 7 3 2 6 7 8 6 5 6 7 5 6 6 5 3 6 7 8 8 8 8 9 10 11 10 10 9 9 9 9 9 9 10 10
11 10 10 10 10 10 16 13 12 12 11 13 15 14 13 12 13 13 12 8 7 6 7 8 7 7 6 7 5 3 2 2 3 2 4 5 5 5 7 7 7 6 4 5 7 8 7 6 6 6 5 6 5 6 3 2 6 8 8 9 10 10 10 10 10 10 9 9 9 10 10 10 10 10
12 12 12 11 11 11 12 11 11 10 11 11 11 10 9 10 12 13 12 10 8 7 8 8 8 6 6 5 3 3 4 4 3 3 4 3 4 5 7 7 6 6 4 5 5 7 6 5 6 7 6 5 5 6 6 8 10 9 8 9 9 10 9 9 9 10 10 10 9 9 10 11 11 11
13 13 12 13 13 12 10 9 12 12 12 11 11 11 11 12 11 11 11 11 10 9 8 8 8 5 5 4 3 4 4 4 3 2 2 2 4 4 5 6 6 5 2 2 3 7 7 6 7 7 7 6 7 6 8 9 8 8 9 9 9 10 10 10 10 10 10 11 11 11 10 10 10 11
12 12 13 12 12 11 11 15 19 15 11 11 12 11 11 10 9 9 6 7 10 9 8 8 7 6 3 3 3 4 3 4 3 2 2 2 3 4 4 4 4 5 1 1 4 6 7 6 7 7 7 7 7 7 7 7 7 6 7 9 10 10 10 10 10 10 10 10 10 11 11 11 10 10
12 12 13 12 12 12 13 17 19 17 13 10 11 10 11 9 9 9 6 6 5 5 7 8 9 10 9 7 7 6 3 1 2 3 3 5 4 3 3 3 4 4 3 3 3 5 7 5 6 7 7 7 8 8 6 5 5 6 9 10 11 11 11 9 9 10 10 10 10 10 11 11 10 11
11 13 18 16 13 13 12 16 16 15 12 9 10 10 11 12 10 9 8 7 5 8 8 8 8 8 8 7 6 5 5 5 4 5 5 3 2 3 3 4 4 6 5 2 2 5 6 6 6 7 7 8 6 5 5 5 6 6 8 9 11 11 10 7 9 10 11 11 11 10 10 10 8 8
10 10 14 18 15 13 11 15 14 15 13 10 10 10 10 10 10 10 10 10 10 8 8 7 7 6 6 6 5 4 5 6 8 6 4 3 3 3 3 4 4 6 4 2 2 5 6 6 6 6 7 8 6 5 5 6 5 7 8 9 8 9 9 9 9 11 11 11 10 10 10 10 7 6
11 11 10 13 16 14 15 17 17 17 17 12 10 9 9 9 10 10 10 10 10 11 10 9 8 7 6 5 5 5 6 7 9 6 5 4 3 3 3 4 4 5 5 3 2 5 7 6 7 6 7 8 8 7 7 6 7 8 8 7 7 7 7 8 9 11 12 11 10 10 11 11 7 6
13 12 14 11 14 16 16 17 17 17 18 15 10 11 9 9 9 11 10 11 13 10 9 8 8 6 6 5 5 6 7 7 7 7 6 5 4 4 4 4 5 6 6 2 4 4 6 6 8 7 6 7 8 9 7 8 7 7 7 7 8 8 7 8 7 8 7 10 12 12 11 11 10 8
15 14 15 11 13 18 16 17 17 17 18 17 9 10 11 10 14 11 10 10 9 8 8 8 8 7 7 6 7 7 7 7 7 7 7 6 5 5 4 4 5 6 7 3 6 4 5 6 6 7 7 7 9 9 10 9 7 5 6 7 7 8 8 9 8 8 8 8 8 5 6 9 11 12
18 12 12 11 16 19 17 17 17 16 18 13 10 12 12 14 15 12 9 10 10 10 10 9 8 7 7 7 8 7 7 7 6 6 5 5 6 5 5 5 6 7 7 6 4 5 5 6 5 6 7 7 9 9 9 9 9 8 8 8 8 9 9 9 9 9 9 9 8 8 9 13 15 16
11 10 10 11 20 21 20 18 17 15 14 11 13 13 14 15 13 9 10 9 10 10 10 8 8 8 8 7 7 7 7 6 6 5 5 5 5 5 5 5 6 7 7 7 6 5 5 6 6 6 6 7 8 9 10 9 9 9 10 9 10 10 9 9 9 9 9 8 8 9 9 10 8 7
12 13 17 20 21 21 20 19 17 12 14 15 13 15 15 14 9 9 9 10 10 10 9 9 8 8 8 8 7 7 6 5 5 4 4 5 5 4 4 4 5 6 5 5 5 5 5 5 6 5 5 5 7 8 8 10 10 10 9 11 10 9 9 9 8 8 8 8 9 9 10 9 9 9
14 15 15 16 15 14 13 12 7 6 8 10 14 16 15 10 9 9 9 9 10 10 9 9 8 8 7 7 6 6 6 5 6 6 6 5 6 5 5 5 5 6 6 5 5 4 4 4 5 5 6 6 6 7 8 9 10 10 10 10 10 9 7 6 7 7 8 9 9 9 9 9 10 10
10 12 11 9 10 7 10 9 9 7 10 10 9 9 10 9 8 9 9 10 10 9 9 8 7 7 7 6 6 6 6 6 6 6 5 5 5 5 4 3 5 5 5 5 5 4 4 4 4 4 5 6 7 7 8 8 10 10 10 10 9 8 7 8 8 9 9 9 10 10 10 10 10 10
9 10 10 12 9 9 8 7 6 6 7 8 9 9 8 7 8 8 8 8 7 7 7 7 7 6 6 7 7 7 7 7 6 5 5 5 4 3 3 4 5 5 5 5 5 4 5 4 4 4 5 5 6 7 7 8 9 10 10 9 8 8 8 9 10 10 10 10 10 12 11 11 12 11
9 9 9 9 9 9 8 6 6 6 8 8 9 12 12 9 7 7 8 9 8 7 7 7 7 7 7 7 7 7 7 6 5 5 5 4 4 3 3 5 6 5 6 6 5 5 5 4 4 5 5 5 6 6 6 8 8 8 8 8 8 9 9 9 10 10 11 11 11 11 12 12 12 12
11 10 8 8 9 10 9 9 8 7 8 9 8 8 9 10 10 9 7 8 8 7 7 7 8 8 8 8 7 7 7 6 5 5 6 4 4 4 5 5 5 5 5 6 6 6 5 5 5 5 6 7 6 7 7 7 8 7 7 7 8 9 9 10 10 11 11 11 13 14 13 13 12 12
14 14 13 12 11 12 13 12 9 7 7 6 8 8 8 9 10 12 9 8 8 8 8 7 7 7 8 8 7 8 7 6 6 6 5 5 5 5 5 5 5 5 6 6 6 5 4 5 6 6 6 5 6 5 10 8 6 6 7 7 7 9 10 10 11 11 11 11 11 13 14 14 13 11
12 13 14 13 12 12 13 12 12 10 8 7 8 8 9 10 11 10 9 9 8 8 8 8 7 7 8 7 7 7 7 6 6 6 6 6 6 5 5 5 5 5 6 6 6 5 4 5 5 6 7 7 7 8 4 12 9 5 6 7 7 8 9 10 11 11 12 11 11 12 13 14 14 14
11 10 11 11 11 12 12 11 10 9 9 9 9 9 11 12 9 8 7 8 8 8 8 7 8 7 7 7 6 6 6 7 6 6 6 6 5 5 4 5 5 5 6 6 5 5 4 5 4 5 6 7 7 8 8 2 9 11 5 7 8 8 9 10 11 12 11 11 12 11 12 13 15 15
12 11 11 10 12 12 11 11 10 10 9 10 12 11 10 8 7 7 7 7 7 7 7 7 7 7 7 7 7 7 7 7 6 6 6 5 5 5 5 5 5 5 5 5 5 5 4 5 5 4 4 6 7 8 9 8 8 5 12 7 8 8 8 9 12 12 12 11 12 11 11 13 14 14
12 12 11 10 9 10 11 11 12 11 10 10 10 8 8 7 7 8 8 8 8 7 7 7 7 7 7 7 7 7 7 7 6 6 5 5 5 5 5 5 5 4 4 5 5 5 4 5 4 4 4 5 7 8 8 10 9 10 6 14 6 8 8 9 11 11 12 12 12 11 12 12 15 18
11 11 12 12 12 10 10 9 10 9 11 11 8 8 8 8 8 8 8 8 7 7 7 8 8 7 7 7 8 7 7 7 6 5 5 5 5 5 5 4 4 4 5 6 5 5 4 4 3 4 5 6 7 7 8 8 9 10 10 10 16 11 7 9 9 10 12 11 11 12 13 12 13 13
11 11 10 10 11 10 10 10 10 9 8 7 7 7 8 7 9 8 8 8 7 7 7 7 7 7 7 8 8 7 7 6 6 5 5 5 5 5 4 3 5 4 5 5 5 5 5 4 4 1 5 5 5 5 6 7 8 8 7 7 8 15 12 9 7 9 10 11 11 12 13 13 15 15
12 11 11 11 11 10 10 10 9 9 8 8 8 8 7 7 6 8 8 8 7 7 7 7 7 8 8 8 8 7 6 6 6 6 5 5 5 6 6 5 5 4 4 5 5 6 5 5 6 5 4 4 4 5 8 9 10 10 9 9 8 8 15 13 12 12 10 10 11 11 11 12 13 14
11 11 11 10 11 12 10 9 9 8 8 8 8 7 7 8 7 8 7 7 7 8 7 7 8 8 7 8 7 7 6 6 6 6 6 6 6 5 5 5 4 4 4 5 5 5 6 5 5 5 4 5 5 5 8 9 10 10 9 10 9 10 8 10 16 16 16 17 16 13 10 10 14 15
12 11 11 12 10 9 8 9 8 8 8 8 7 7 8 8 8 8 8 8 8 8 8 8 8 8 8 7 7 7 6 6 6 6 6 6 6 6 5 4 4 4 4 5 5 5 5 5 5 4 5 6 5 6 8 9 9 9 10 10 10 10 10 11 10 9 11 13 15 17 18 18 16 17
10 10 10 9 8 8 8 8 8 8 8 8 8 8 8 8 9 9 9 9 9 8 8 8 8 8 8 8 7 8 7 6 6 6 6 6 6 6 6 5 5 4 5 4 5 5 5 5 5 5 5 5 5 6 7 8 8 9 10 10 11 9 10 11 11 11 11 10 8 7 11 12 14 17
Wind_Direction
216 213 206 212 221 218 198 207 210 200 196 203 203 211 226 214 257 279 278 273 282 263 255 291 110 236 171 169 145 183 272 31 346 0 351 356 298 74 268 251 260 265 267 269 270 273 274 274 273 268 267 265 259 257 252 250 251 252 254 256 260 261 261 261 261 260 256 254 251 251 253 259 262 263
206 212 208 207 219 203 194 202 201 190 198 198 203 208 208 196 235 259 276 294 269 286 229 268 305 141 175 178 171 209 262 86 274 279 277 267 355 37 278 275 276 279 278 275 278 282 286 288 290 291 289 282 274 265 262 261 259 258 255 255 254 256 257 258 257 257 257 254 252 253 254 257 259 258
199 204 211 202 213 198 200 194 190 186 189 196 196 204 196 200 215 234 250 274 271 239 304 304 321 251 172 204 218 213 231 154 226 218 184 219 79 276 253 239 251 261 270 279 284 287 286 286 285 284 284 285 286 281 278 276 274 273 273 268 262 260 257 253 252 252 251 251 250 250 251 251 252 254
195 202 211 205 204 195 198 199 190 182 185 184 189 192 195 199 208 206 228 247 284 211 280 299 237 252 231 233 237 248 214 141 209 189 207 132 214 234 209 183 227 256 265 273 277 278 277 273 273 271 271 274 276 279 280 280 280 279 279 281 279 275 271 266 262 256 254 255 256 257 256 255 251 252
194 202 209 209 202 192 202 204 204 195 178 180 185 183 190 198 190 201 210 249 270 237 193 227 256 218 247 239 236 236 208 181 163 195 173 193 209 196 247 233 182 217 240 258 265 269 273 273 272 270 264 261 262 262 265 270 276 281 282 283 284 284 282 276 266 260 260 260 258 257 258 259 257 258
195 196 206 210 197 187 205 206 207 204 192 192 191 187 197 205 196 192 221 231 246 274 194 213 203 215 209 248 225 240 229 190 178 186 166 179 197 225 276 283 142 145 272 271 273 279 279 281 281 281 277 265 262 261 268 276 279 284 291 296 295 295 291 289 287 283 280 271 267 260 256 253 255 258
191 197 205 207 196 181 198 202 210 203 201 201 207 204 200 217 219 194 211 229 243 252 264 263 260 240 209 241 222 211 227 220 217 191 159 178 177 221 244 265 289 135 277 281 284 285 288 288 288 288 287 289 289 295 299 301 304 307 305 304 300 293 289 284 283 279 273 274 275 277 277 272 271 269
192 201 204 207 198 187 195 199 200 198 198 200 204 208 199 211 223 213 206 224 245 253 267 249 256 262 267 246 224 216 230 239 184 178 170 208 224 229 220 230 273 142 231 266 269 270 278 280 285 283 283 287 288 283 282 287 292 294 295 293 290 286 285 287 285 283 283 281 274 270 272 273 273 272
195 200 208 202 192 187 194 197 201 196 194 197 200 207 198 206 217 214 215 224 228 243 250 256 248 246 246 253 254 232 265 232 221 209 221 227 235 224 250 248 215 219 224 241 245 252 249 259 258 265 274 278 280 284 283 281 283 285 285 285 283 285 284 282 280 281 281 279 274 267 258 257 257 259
200 204 206 200 191 190 194 197 193 189 192 190 201 204 201 202 207 213 216 221 224 235 244 248 258 239 253 251 257 214 228 267 280 264 235 219 210 217 243 271 246 303 304 306 247 216 230 205 223 241 254 250 263 272 281 276 270 270 271 268 270 275 281 283 282 279 276 272 269 264 261 260 257 255
205 207 204 197 192 193 196 194 186 184 189 194 201 201 202 199 199 208 216 210 220 228 244 246 246 259 252 251 265 192 197 245 267 294 295 279 203 218 309 310 310 299 291 264 221 248 312 319 300 37 290 273 235 238 248 262 260 251 248 258 261 263 268 274 277 278 276 275 273 270 265 260 259 261
209 206 206 203 196 197 195 192 187 186 191 193 199 195 194 191 196 209 217 223 228 237 246 254 261 253 258 233 229 204 229 247 235 235 309 307 313 315 313 288 306 322 301 304 305 193 209 222 216 223 232 234 237 261 275 266 280 283 267 262 261 255 255 263 273 279 280 278 276 275 272 268 260 252
208 206 204 203 200 195 194 192 191 192 191 193 196 185 183 188 194 206 220 231 232 240 251 258 254 251 246 248 242 239 228 256 284 288 304 296 295 303 309 319 314 297 292 294 294 304 314 302 299 306 299 289 260 250 230 265 254 256 271 279 284 289 293 289 276 268 273 277 278 275 271 269 266 265
206 205 202 198 196 188 190 191 195 196 197 203 208 187 181 188 192 201 218 225 231 243 252 254 254 252 253 244 228 247 250 226 201 214 243 277 292 295 300 298 290 299 291 299 299 301 304 306 305 295 296 293 276 289 273 326 355 334 309 298 300 302 297 290 287 282 268 262 264 266 268 268 267 265
203 203 199 195 186 185 189 194 195 195 199 204 210 205 187 187 192 204 211 225 233 242 248 249 244 254 259 249 239 249 264 220 217 262 267 274 284 294 303 301 293 225 296 304 302 295 296 298 296 297 293 295 295 292 302 30 301 290 293 296 297 296 290 286 283 281 279 269 258 254 254 257 261 263
203 197 191 190 187 194 195 197 195 198 201 202 204 204 201 198 204 209 211 224 230 229 239 238 243 248 241 250 243 261 257 236 231 245 260 280 292 293 283 289 295 336 331 313 307 301 298 290 293 293 289 297 297 313 333 284 285 290 292 288 283 283 289 291 289 285 282 278 270 263 255 250 250 254
201 189 187 188 193 198 194 194 197 195 199 204 203 205 205 206 207 213 222 227 239 232 231 243 243 233 249 251 254 235 218 182 256 251 255 270 278 278 283 287 302 311 326 300 301 300 304 302 294 296 302 297 308 312 289 332 287 282 284 289 288 287 285 286 287 284 276 272 272 272 273 272 269 261
202 191 188 189 194 198 192 192 188 185 193 192 197 205 206 210 208 208 209 210 213 226 235 242 240 222 209 237 236 166 171 195 237 253 263 261 256 271 285 305 292 288 287 295 309 292 296 314 309 301 306 312 311 307 324 303 288 290 292 287 289 289 286 280 280 280 280 278 273 270 272 277 279 280
200 195 193 191 192 191 184 179 182 190 192 188 191 197 201 206 207 202 202 202 204 207 217 220 230 219 191 214 184 168 183 202 236 251 276 288 294 291 289 270 261 271 217 263 286 290 303 310 299 303 314 316 314 315 311 291 286 289 293 293 292 292 289 287 283 281 282 284 285 284 278 273 272 274
200 199 194 191 193 186 184 181 182 190 185 185 192 193 197 200 202 203 175 174 190 195 201 208 217 234 191 143 184 174 186 174 177 166 206 206 229 249 273 289 302 304 120 194 294 294 301 314 303 309 314 314 307 312 303 309 286 286 289 290 287 282 279 280 284 286 284 282 282 282 283 280 274 269
202 200 194 189 191 185 189 184 184 187 180 186 192 196 197 195 189 193 143 104 106 105 88 88 86 96 111 112 105 105 91 111 137 196 220 230 223 223 269 284 298 301 322 300 309 304 301 309 312 308 309 309 302 295 303 315 323 317 300 291 286 282 280 278 278 281 283 283 282 281 281 281 285 285
204 207 197 193 193 190 192 179 185 183 183 194 193 197 197 195 188 185 152 150 120 99 102 107 112 117 123 125 128 129 145 138 184 205 225 224 206 235 248 284 302 307 306 307 353 307 296 312 310 306 306 300 282 279 293 309 302 281 275 270 269 275 280 281 280 280 281 280 281 281 278 279 286 279
206 206 198 196 196 193 174 168 183 181 185 202 196 198 196 190 185 184 158 152 148 154 152 147 144 137 140 148 173 165 161 178 204 220 229 206 212 240 287 297 300 296 291 66 27 302 303 309 309 309 306 304 306 292 287 293 303 313 313 310 301 290 286 282 273 269 268 270 274 275 276 280 277 282
204 202 198 194 193 186 167 174 184 183 189 197 195 195 197 192 191 171 159 159 156 161 167 163 169 166 162 166 180 183 181 196 206 210 209 212 210 228 256 274 274 282 292 300 308 300 300 299 296 305 301 304 305 308 297 295 302 311 314 311 307 299 278 266 253 241 244 249 252 256 266 271 265 287
205 207 213 205 179 179 170 175 183 185 192 197 191 191 193 198 168 150 157 154 156 160 160 160 165 164 169 184 193 193 191 191 188 196 202 206 203 225 248 270 280 287 291 329 103 274 286 299 296 299 295 288 292 300 307 304 297 302 316 316 312 309 306 302 301 296 273 231 229 237 247 252 247 244
214 209 207 202 172 176 173 179 183 189 191 198 196 189 189 153 138 156 154 155 163 164 165 168 175 175 181 188 198 194 191 192 185 191 189 202 218 217 245 257 267 279 286 111 137 274 272 279 288 301 301 297 299 304 307 307 307 312 312 312 313 311 305 304 301 298 297 302 297 243 271 236 236 231
211 199 190 186 161 177 179 184 187 189 192 191 200 181 156 148 155 152 158 156 166 176 180 181 175 176 181 190 191 192 193 194 186 192 197 196 209 225 240 247 246 257 269 285 253 253 251 266 278 284 296 299 298 301 300 310 318 321 310 315 317 313 309 306 301 302 304 301 293 291 259 242 241 243
177 161 159 155 159 175 180 183 186 192 184 189 189 158 159 155 158 162 153 161 166 173 175 174 175 179 185 191 191 192 195 192 177 194 194 207 216 226 236 230 242 247 258 261 262 244 241 261 275 275 276 288 294 301 306 306 308 316 315 316 314 312 313 311 304 298 294 288 293 294 301 303 292 265
195 184 164 156 162 171 174 177 180 181 185 191 164 162 155 157 168 166 166 166 169 176 175 178 180 181 186 192 191 188 183 167 155 180 205 215 219 221 228 240 242 242 238 246 243 236 236 255 278 285 277 272 280 292 300 305 311 311 317 315 310 321 316 306 298 297 296 297 295 296 297 297 288 281
178 161 154 146 154 160 169 165 160 167 183 181 164 158 160 170 173 168 165 161 167 176 176 179 181 184 181 185 182 169 166 173 192 201 214 210 209 208 216 229 230 230 232 228 236 230 238 245 253 266 273 268 272 291 300 307 307 310 310 307 311 305 293 294 296 295 298 299 298 296 290 284 280 283
155 145 134 136 141 144 159 161 153 154 157 165 160 162 173 179 174 172 170 169 170 173 173 177 181 178 174 164 161 174 180 191 200 204 211 218 212 203 207 235 260 261 253 247 249 244 256 247 251 253 262 279 291 292 302 301 300 305 307 310 311 304 309 302 293 297 302 303 306 297 291 284 282 278
130 126 129 128 122 126 140 155 157 165 169 171 168 169 177 176 173 162 145 151 166 165 169 167 162 157 153 173 187 186 194 202 200 193 208 218 214 208 198 238 261 267 272 267 272 239 218 238 248 245 251 267 285 298 298 297 296 299 302 302 299 296 297 301 306 307 309 311 301 296 293 290 289 289
119 119 131 132 135 137 133 142 165 171 176 178 175 172 180 180 159 160 170 174 169 163 158 161 165 169 178 187 189 193 199 199 194 180 194 197 211 200 219 254 274 276 279 281 280 284 281 260 228 248 260 261 255 265 283 296 295 299 301 302 302 299 304 304 309 309 312 304 296 296 294 291 289 285
137 138 141 149 143 142 143 153 169 180 183 174 170 167 170 173 179 175 174 178 172 162 169 165 172 177 185 191 192 199 204 193 191 175 189 187 194 207 222 244 256 258 264 274 283 287 283 280 282 263 254 250 242 241 253 273 287 297 299 302 296 299 302 309 309 311 307 306 307 302 298 297 291 287
156 156 153 153 160 160 157 159 149 168 181 174 171 171 171 177 174 179 180 178 168 164 166 169 178 182 190 198 196 202 205 202 183 165 186 194 193 217 236 250 257 259 268 278 282 278 276 281 286 295 293 295 290 259 217 228 282 292 304 293 301 299 305 308 311 311 309 302 301 300 299 294 291 293
159 162 156 153 156 157 158 160 161 170 170 171 173 169 179 183 183 183 180 166 162 161 167 173 181 186 196 201 198 200 201 198 185 178 183 199 209 219 228 240 253 262 268 275 277 276 282 289 300 309 318 321 318 315 318 189 214 301 298 304 302 303 303 308 309 308 305 302 303 302 296 297 299 300
148 153 153 157 158 160 156 156 162 165 166 177 181 184 187 187 185 185 159 149 160 165 174 178 185 191 194 196 193 195 191 189 196 187 199 202 210 218 227 233 237 250 266 266 269 276 269 285 297 305 312 314 314 313 310 335 203 216 281 288 293 301 309 309 307 305 307 306 304 299 297 298 296 297
151 154 163 163 167 165 152 148 155 167 174 179 191 192 192 178 165 156 142 159 162 172 168 185 190 193 194 185 195 193 189 188 196 195 206 204 205 215 224 244 255 266 274 272 269 269 268 280 291 299 299 302 310 306 312 317 322 242 196 237 290 301 304 304 310 312 310 308 303 302 299 294 292 297
150 154 155 161 161 163 158 158 161 169 174 188 193 183 175 162 154 154 161 172 173 178 177 187 194 190 189 184 192 182 178 181 192 205 207 211 213 220 226 237 255 262 268 273 269 268 268 277 295 300 296 298 299 308 311 309 294 305 242 190 251 282 294 310 312 309 310 308 306 303 292 285 283 277
149 157 164 167 168 163 158 155 163 164 181 188 176 178 170 164 161 164 168 169 170 173 183 191 187 176 180 180 181 180 180 186 198 205 213 220 211 212 229 241 260 273 271 274 279 285 283 291 300 315 314 298 293 290 298 284 282 276 275 241 205 222 275 313 308 312 309 307 307 303 302 302 303 313
152 157 161 160 162 164 161 163 164 165 170 165 165 168 172 165 166 169 173 167 168 171 185 183 175 181 178 174 179 182 181 190 199 207 209 217 207 218 217 223 258 255 267 279 287 286 292 320 332 234 252 273 268 273 260 265 270 289 298 323 173 203 225 222 271 302 301 305 304 303 303 309 317 317
162 161 156 160 160 161 162 163 164 162 159 164 169 167 164 162 169 145 152 149 164 176 186 179 175 181 173 172 178 186 195 193 199 205 208 215 203 203 191 220 249 257 264 281 295 301 308 300 292 273 273 256 264 275 294 301 305 307 311 307 314 194 202 225 232 236 262 290 306 304 306 313 323 321
152 152 156 160 162 166 166 157 154 155 158 164 164 160 161 165 156 156 169 166 179 184 184 178 175 175 172 176 181 189 198 200 206 207 205 208 215 221 219 223 238 262 278 286 289 290 288 290 284 283 281 287 278 283 294 302 302 300 301 311 317 321 305 218 217 229 239 245 247 256 275 301 320 312
156 156 159 162 160 155 148 151 155 157 157 159 155 155 165 164 163 167 174 175 176 180 181 177 172 175 176 180 182 191 204 209 204 208 210 210 216 223 234 240 244 262 273 281 284 282 292 292 293 285 292 300 306 299 302 302 300 308 313 309 310 313 311 321 317 293 268 251 244 239 244 245 251 266
153 151 150 155 153 149 148 150 155 156 155 155 157 167 166 168 169 173 177 174 179 178 177 177 175 179 182 182 187 196 203 201 212 211 217 216 215 218 226 239 244 254 266 275 281 282 283 291 290 282 277 292 297 293 292 290 290 300 301 306 311 316 321 323 319 315 312 310 303 259 234 245 260 272